Location: Brunsen
(51.8651°N, 9.8610°E)
Time: 20:57:49
(UTC+00:00)

CZ-2C R/B - Pass Details

Date: 16 August 2024
Orbit: 782 x 869 km, 98.3° (Epoch: 07 September)

Event Time Altitude Azimuth Distance (km) Brightness Sun altitude
Exits shadow 00:35:51 28° 138° (SE) 1,548 3.8 -22.7°
Maximum altitude 00:38:42 60° 69° (ENE) 957 3.1 -22.6°
Drops below altitude 10° 00:43:59 10° 351° (N) 2,428 5.9 -22.3°
Sets 00:46:20 0° 348° (NNW) 3,352 6.7 -22.2°
